Location: Bailen
(14.1842°N, 120.7958°E)
Time: 18:11:52
(UTC+00:00)

ATLAS 5 CENTAUR R/B - Pass Details

Date: 12 January 2026
Orbit: 367 x 1078 km, 63.3° (Epoch: 16 February)

Event Time Altitude Azimuth Distance (km) Brightness Sun altitude
Exits shadow 20:31:23 16° 213° (SSW) 2,314 4.3 -26.7°
Drops below altitude 10° 20:33:22 10° 199° (SSW) 2,796 4.9 -26.2°
Sets 20:36:47 0° 185° (S) 3,817 5.8 -25.4°
